User: anonymous   Login
Location: Copper Breaks State Park
(34.1132°N, 99.7492°W)
Time: 11:40:22
(UTC-06:00)
Language:

SL-16 R/B - Orbit

View from above orbital plane
View from above orbital plane
View from above satellite
View from above satellite

Ground track
Ground track

The orbit data is extracted from the following two-line orbital elements,

1 27006U 01056F   17350.97141947 -.00000054 +00000-0 -12476-4 0  9990
2 27006 099.3404 126.7826 0014504 190.7055 275.1392 13.70968100801451
Epoch (UTC): 16 December 2017 23:18:50
Eccentricity: 0.0014504
inclination: 99.3404°
perigee height: 985 km
apogee height: 1007 km
right ascension of ascending node: 126.7826°
argument of perigee: 190.7055°
revolutions per day: 13.70968100
mean anomaly at epoch: 275.1392°
orbit number at epoch: 80145

The dashed part of the orbit path shows where the satellite is in the earth's shadow,  

DLR